Regional Weather Roundup
Issued by NWS

Home | Current Version | Previous Version | Text Only | Print | Product List | Glossary On
Versions: 1 2 3 4 5 6 7 8 9 10 11 12 13 14 15 16 17 18 19 20 21 22 23 24 25 26 27 28
000
ASUS45 KREV 210910
RWRNV
NEVADA REGIONAL WEATHER ROUNDUP
NATIONAL WEATHER SERVICE RENO NV
100 AM PST SAT JAN 21 2017

NOTE: "FAIR" INDICATES FEW OR NO CLOUDS BELOW 12,000 FEET WITH NO
SIGNIFICANT WEATHER AND/OR OBSTRUCTIONS TO VISIBILITY.

NVZ001-003-004-211000-
WESTERN NEVADA

CITY           SKY/WX    TMP DP  RH WIND       PRES   REMARKS
RENO           PTCLDY    36  24  62 SW8       29.32R
CARSON CITY    CLOUDY    32  23  69 S6        29.36R
MINDEN         MOCLDY    30  25  80 S13G20    29.37R
PYRAMID LAKE     N/A     37 N/A N/A SW6         N/A
FALLON         MOCLDY    32  25  75 S3        29.33R
LOVELOCK       CLOUDY    33  28  81 S7        29.32R
HAWTHORNE        N/A    N/A N/A N/A MISG        N/A
$$

NVZ002-CAZ072-073-211000-
NORTHERN AND CENTRAL SIERRA

CITY           SKY/WX    TMP DP  RH WIND       PRES   REMARKS
S. LAKE TAHOE  HVY SNOW  26  23  88 S9        29.34R VSB 1/4
TRUCKEE        LGT SNOW  27  23  86 SW3       29.35R
SQUAW VLY 8000   N/A     19  19 100 SW13        N/A
SUSANVILLE     MOCLDY    32  30  93 N3        29.32R
MAMMOTH LAKES  MOCLDY    19  15  81 NE5       29.36R
BRIDGEPORT     LGT SNOW  24  18  77 W8        29.33R
$$

NVZ030-031-036-211000-
NORTHERN NEVADA

CITY           SKY/WX    TMP DP  RH WIND       PRES   REMARKS
ELKO           CLOUDY    27  24  89 CALM      29.27R FOG
WINNEMUCCA     PTCLDY    28  28 100 S8        29.30R
WENDOVER       CLOUDY    27  25  93 CALM      29.28S
$$

NVZ035-037-211000-
CENTRAL NEVADA

CITY           SKY/WX    TMP DP  RH WIND       PRES   REMARKS
ELY            CLOUDY    25  23  92 W6        29.26R
EUREKA           N/A     13  10  88 S7        29.29R
$$

NVZ013-014-211000-
SOUTH CENTRAL NEVADA

CITY           SKY/WX    TMP DP  RH WIND       PRES   REMARKS
TONOPAH        MOCLDY    29  28  96 CALM      29.33R
$$

NVZ017-020-022-211000-
SOUTHERN NEVADA

CITY           SKY/WX    TMP DP  RH WIND       PRES   REMARKS
LAS VEGAS      PTCLDY    47  32  56 SW14G22   29.32R
N. LAS VEGAS   LGT RAIN  45  36  70 NE7       29.32R
NELLIS AFB     CLEAR     46  36  68 S15       29.33R
HENDERSON      PTCLDY    44  33  65 SW20G31   29.35R
MERCURY        CLOUDY    41  33  73 W21       29.35R
$$




USA.gov is the U.S. government's official web portal to all federal, state and local government web resources and services.